Location: Aldenham
(51.6667°N, 0.3500°W)
Time: 07:09:31
(UTC+00:00)

Sich 1 Rocket - Pass Details

Date: 18 November 2025
Orbit: 611 x 646 km, 82.5° (Epoch: 12 December)

Event Time Altitude Azimuth Distance (km) Brightness Sun altitude
Rises 18:06:53 0° 173° (S) 2,942 7.1 -18.2°
Reaches altitude 10° 18:09:10 10° 168° (SSE) 2,040 6.2 -18.5°
Maximum altitude 18:13:32 50° 94° (E) 830 3.8 -19.2°
Enters shadow 18:14:59 36° 44° (NE) 1,035 4.3 -19.4°
